{"data":{"norad_id":56539,"epoch":"2026-05-25T01:34:16.144032Z","epoch_age_seconds":65808,"freshness":"FRESH","line1":"1 56539U 23065AN  26145.06546463  .00003191  00000+0  12555-3 0  9990","line2":"2 56539  43.0054 155.5966 0002558 292.2599  67.7981 15.27552580168116","mean_motion":15.2755258,"eccentricity":0.0002558,"inclination_deg":43.0054,"raan_deg":155.5966,"arg_perigee_deg":292.2599,"mean_anomaly_deg":67.7981,"bstar":0.00012555,"rev_number":16811,"period_min":94.2684408284,"perigee_km":481.37609020589,"apogee_km":484.88631501835,"semimajor_km":6861.2682026121,"source":"CELESTRAK","updated_at":"2026-05-25T13:38:18.114077Z"}}